sat.trackr.live / text

‹ back to catalog

STARLINK-34943

NORAD 65366 · 2025-190R

PAYLOAD ACTIVE UNKNOWN

§ Identity

Operator
Country
US
Launch date
2025-08-28
Launch site
AFETR
Launch vehicle
Mass (kg)
RCS (m²)

Purposes: comms

External: N2YO · Heavens-Above · Gunter

§ Orbital elements

Epoch: 2026-09-20T12:35:54.415968Z

Period
93.85 min
Inclination
53.1600°
Eccentricity
0.0001197
Mean motion
15.34403323 rev/d
Perigee alt
461.9 km
Apogee alt
463.5 km
Semi-major
6,840.8 km
B*
7.2522e-4
RAAN
339.7663°
Arg perigee
77.8925°
Mean anomaly
282.2212°
Rev number
5,916

§ Raw data

STARLINK-349431 65366U 25190R   26263.52493537  .00024208  00000+0  72522-3 0  99962 65366  53.1600 339.7663 0001197  77.8925 282.2212 15.34403323 59164

JSON: /api/v1/satellites/65366 · /tle

For live sub-satellite position, see the globe view (requires WebGL).

§ Visibility from observer

Set your observer location to see the next 7 days of passes ≥ 10°. The values pass through the URL so the page stays shareable.

No JS? Fill the form by hand. The geolocation button needs JavaScript.